Presure
194 126 203 184 147 133 131 110 114 105 117 132 117 109 117 121 125 106 125 119 117 90 113 124 112 118 111 129 128 119 110 114 112 119 101 106 91 97 116 98 97 111 123 90
231 161 162 123 172 170 150 134 115 112 82 130 111 113 67 121 109 114 104 121 111 121 111 76 119 110 115 114 109 84 102 103 128 119 105 90 122 102 98 105 104 114 123 118
241 236 227 107 131 145 137 157 122 131 101 96 131 118 117 95 114 114 114 110 118 113 102 103 104 88 119 113 114 118 110 106 104 108 96 132 125 93 109 106 112 109 102 118
406 279 241 234 238 78 174 170 150 138 149 134 126 117 123 118 120 124 125 92 90 80 118 115 125 84 101 100 108 123 113 112 118 111 102 113 103 111 111 105 106 108 114 118
534 439 335 281 244 168 154 196 145 194 142 142 147 99 91 66 130 70 110 98 111 110 109 121 118 117 114 120 126 106 113 118 115 97 98 110 91 107 89 102 101 112 108 89
594 467 429 351 297 271 239 166 185 192 167 90 125 135 132 112 108 129 121 118 124 114 114 125 104 115 117 108 131 110 116 113 108 94 111 110 111 119 106 108 103 110 113 120
484 465 442 419 425 305 259 232 223 225 173 146 202 157 125 134 115 110 127 113 130 70 87 113 141 128 116 99 118 112 126 123 90 117 120 111 81 113 92 113 118 112 114 112
428 460 412 426 434 388 287 212 72 73 208 158 180 60 64 104 133 113 121 129 112 88 121 101 129 119 87 111 120 123 118 107 123 126 116 107 127 89 96 110 112 111 101 136
399 432 449 443 374 381 460 244 259 250 236 226 224 159 188 126 131 139 140 123 120 120 100 109 113 83 84 146 131 125 109 112 116 123 115 98 126 118 112 119 117 122 115 120
403 409 403 432 420 380 364 333 317 226 182 254 244 223 107 150 141 100 141 118 147 107 108 121 115 122 118 126 118 131 124 117 121 103 90 125 88 118 104 119 102 129 120 125
389 404 384 394 426 419 380 382 353 287 260 252 128 66 223 189 149 200 134 81 148 140 142 124 131 149 137 132 72 149 140 127 99 117 129 124 119 129 119 134 126 120 116 125
376 403 391 410 399 409 392 350 450 323 358 254 168 205 241 244 208 202 201 129 135 82 90 140 110 136 138 118 124 133 81 112 112 111 138 104 128 124 126 133 127 131 132 138
337 362 370 370 370 377 387 346 330 339 401 124 170 250 243 239 133 222 127 141 100 144 85 122 164 143 142 130 144 99 137 128 130 109 132 137 140 129 133 119 121 127 135 136
296 366 365 409 401 351 365 362 326 317 329 353 289 267 243 149 238 244 247 166 153 203 96 177 127 135 139 132 101 146 121 133 116 129 127 104 149 128 144 112 85 124 107 127
276 305 347 362 405 380 351 357 382 327 347 323 335 323 280 153 235 244 239 245 255 201 209 141 186 103 125 129 131 146 149 128 119 116 143 132 155 123 131 130 137 100 117 120
76 281 317 372 362 371 438 357 352 357 372 333 345 323 317 275 73 244 243 193 243 247 80 86 88 151 106 162 101 103 188 145 136 105 135 176 157 100 142 97 105 107 121 113
270 273 280 319 369 368 361 364 389 343 346 349 109 271 336 258 234 133 185 67 243 247 242 249 222 219 199 187 150 145 154 148 121 119 161 136 134 156 139 120 104 114 151 108
266 274 269 289 333 375 332 343 349 378 376 378 394 372 355 64 118 324 277 253 105 76 91 74 177 87 86 184 95 79 167 168 89 105 141 156 101 131 145 103 152 140 153 147
259 270 264 270 303 328 341 335 337 350 370 364 367 373 380 390 365 133 318 156 276 248 249 107 255 257 260 236 206 210 212 148 186 193 186 132 94 97 155 160 149 144 135 169
262 264 262 269 274 325 358 349 339 349 346 340 361 357 358 359 206 385 353 347 86 347 274 251 245 107 256 250 244 128 229 208 107 119 202 199 195 196 198 155 167 172 179 148
261 260 260 266 279 285 329 331 339 343 341 351 359 362 356 359 363 363 192 377 343 318 339 235 284 255 247 248 188 166 197 238 223 218 212 211 208 135 202 133 194 188 175 195
258 254 260 260 265 277 333 339 356 351 342 332 338 337 374 369 373 384 365 357 361 372 354 339 347 185 317 213 112 174 252 197 143 234 144 220 212 214 215 214 211 205 200 198
258 258 255 252 263 266 323 319 342 344 351 341 340 340 334 329 359 367 360 388 361 361 344 371 368 372 82 240 87 259 232 95 125 249 157 240 236 234 231 220 215 212 211 209
256 254 258 249 268 267 319 319 357 196 343 332 327 328 335 338 338 348 368 364 357 368 388 342 89 299 366 348 383 379 192 273 248 246 245 251 254 231 241 235 240 243 234 226
249 253 260 268 267 268 325 322 347 327 328 335 329 332 333 340 326 346 352 358 373 363 99 371 389 362 214 210 376 371 250 376 349 303 258 245 246 250 254 253 248 242 239 237
253 251 254 268 265 271 328 339 332 332 329 335 348 351 354 365 362 354 361 355 357 364 277 359 232 181 294 351 369 365 361 178 97 362 373 148 288 208 250 249 248 245 244 242
Wind_Speed
122 82 115 108 96 96 93 77 81 74 90 78 71 66 75 70 62 50 51 55 57 44 50 49 44 44 43 46 46 36 31 32 30 28 26 24 24 21 24 21 20 27 29 15
128 104 107 79 97 106 99 90 80 84 51 86 71 69 30 77 61 60 52 55 60 60 56 31 51 45 46 44 41 36 31 33 39 34 31 24 34 24 26 28 26 30 33 31
129 128 130 68 62 101 97 94 80 81 48 24 82 74 76 54 72 67 64 61 61 63 52 51 47 42 50 46 49 43 38 38 37 36 31 41 37 28 26 30 32 31 26 35
86 122 129 131 132 23 95 88 106 102 111 93 76 67 82 81 80 81 74 54 54 33 67 66 65 41 43 46 40 49 43 43 44 41 35 39 32 35 30 33 36 36 39 39
47 70 110 126 129 111 99 120 111 116 109 104 101 47 60 21 87 9 74 66 74 65 64 68 69 67 59 60 60 44 47 48 46 35 37 39 32 32 26 34 38 42 40 22
29 53 69 107 119 131 129 122 121 122 117 13 76 82 88 80 86 85 86 87 87 64 66 66 55 65 67 57 71 50 54 53 48 38 46 49 43 44 35 37 40 42 45 45
18 33 50 63 76 116 132 138 132 135 122 76 111 100 86 99 98 90 90 78 95 23 42 67 77 73 71 37 70 59 60 58 39 55 51 51 20 46 34 43 47 41 44 45
20 17 42 46 47 85 123 107 28 28 119 108 114 8 5 36 111 101 102 85 73 55 84 60 85 72 42 58 72 70 62 49 61 59 54 49 59 34 40 44 46 46 44 59
17 17 31 42 68 70 42 116 129 137 141 132 128 104 110 115 115 117 114 98 94 88 43 61 68 39 38 86 75 68 61 60 54 60 52 49 60 57 56 57 48 53 54 55
17 12 20 35 53 72 83 103 110 117 86 139 133 126 63 100 119 56 117 73 108 63 64 94 69 71 78 73 60 66 71 69 72 51 48 63 33 63 51 58 48 60 57 60
30 17 17 26 34 45 70 82 99 125 134 136 46 9 126 124 121 126 114 29 111 105 109 85 95 108 89 89 15 89 79 70 46 63 71 69 63 69 58 65 64 62 59 62
34 26 13 19 22 31 50 67 35 108 96 131 75 101 125 133 126 126 125 111 118 13 18 102 57 107 103 73 83 87 37 65 59 59 76 49 72 67 67 71 68 70 67 70
44 31 23 14 18 32 44 56 84 68 46 62 87 126 127 127 61 133 107 86 36 98 20 72 103 105 107 85 106 58 90 78 81 69 76 76 79 69 73 61 61 66 73 74
47 32 25 21 20 34 38 55 76 88 89 76 124 129 128 66 134 135 137 96 90 130 49 116 82 103 76 94 63 106 86 90 68 70 65 55 89 69 82 54 34 59 42 67
46 45 34 24 25 30 44 46 43 50 76 96 96 108 125 60 128 130 133 132 132 120 133 113 128 27 81 59 69 101 76 52 60 54 90 74 98 57 75 76 80 48 64 66
14 44 41 25 25 23 33 46 52 52 51 82 83 101 111 122 9 126 130 94 130 133 12 28 30 121 52 123 48 48 116 106 91 54 82 115 106 46 91 43 44 58 63 69
45 39 42 36 31 27 17 24 39 56 62 67 28 67 94 96 91 40 93 19 135 138 133 139 132 142 131 133 111 102 89 106 72 73 117 79 86 101 83 69 51 60 101 56
49 43 41 41 36 27 25 29 35 40 46 50 52 69 83 25 43 117 131 140 41 22 36 31 91 38 38 121 52 31 109 104 36 49 91 116 51 84 99 57 77 92 103 99
48 45 42 39 40 31 28 31 34 43 39 49 50 52 54 64 84 29 116 45 135 136 139 47 138 140 137 142 140 148 144 91 130 128 127 85 42 52 118 115 103 94 86 101
52 44 42 44 39 37 30 31 33 36 38 45 54 56 58 61 43 67 89 99 27 115 139 136 136 54 135 133 139 51 152 144 60 63 143 138 128 124 125 114 127 126 119 103
61 55 52 53 54 49 39 33 36 37 35 40 44 51 59 60 65 63 36 68 97 98 115 88 138 139 138 138 102 86 112 147 151 153 151 148 147 80 139 76 127 126 113 124
63 56 57 54 55 56 50 45 39 37 30 32 39 45 52 57 62 63 67 71 74 76 96 112 115 68 133 103 15 79 141 109 84 145 75 153 148 149 147 145 146 143 138 136
63 60 58 56 56 55 52 49 44 44 42 36 36 39 45 47 50 59 57 63 75 75 85 80 91 92 40 84 33 143 126 48 57 142 81 144 146 149 151 149 144 141 141 139
63 64 61 57 61 57 49 50 46 20 43 37 41 42 45 47 50 52 51 57 66 70 73 76 28 78 90 86 87 99 72 138 140 138 135 136 137 127 142 145 142 142 145 146
63 64 61 60 59 60 50 49 40 44 46 45 44 49 48 49 55 54 54 54 60 68 37 72 76 84 58 51 82 89 70 93 91 130 138 134 134 133 133 135 135 137 136 137
67 64 62 58 60 62 48 45 43 41 43 47 50 53 55 55 50 51 56 60 60 61 55 71 54 46 65 84 81 85 86 55 43 95 91 66 129 107 129 130 130 132 132 132
Wind_Direction
248 247 249 246 233 229 231 241 237 254 246 235 241 253 256 254 249 244 240 248 256 246 258 257 251 252 259 259 261 260 259 263 267 272 273 278 279 291 291 297 298 308 305 301
244 241 244 240 249 241 236 229 239 248 247 236 247 248 261 252 256 252 246 239 251 254 255 252 254 247 251 256 258 248 246 255 273 270 269 257 278 283 289 294 296 301 302 302
244 244 241 246 248 237 238 234 237 244 249 233 228 239 248 254 259 252 247 242 244 248 245 253 251 239 253 250 254 259 257 255 253 263 244 274 279 263 288 287 292 292 293 295
245 243 243 242 240 230 245 246 235 233 238 244 241 236 234 247 250 246 248 254 256 238 241 252 254 246 245 251 246 254 253 257 259 259 256 272 263 276 281 284 288 292 293 293
245 241 237 238 241 241 234 243 235 242 236 236 234 262 260 257 240 295 254 251 253 246 241 237 246 253 258 255 257 249 255 255 255 250 260 261 264 266 259 277 284 287 288 283
270 240 238 237 236 236 238 239 239 241 239 171 238 233 231 253 262 243 240 248 246 257 247 239 253 249 253 254 258 252 255 254 257 249 260 266 263 267 264 268 271 278 283 288
276 240 238 234 236 231 236 239 238 239 239 244 242 237 233 235 249 259 243 259 244 235 253 251 245 237 243 263 257 256 252 252 260 257 257 260 244 267 270 274 275 274 279 282
311 251 232 230 237 230 229 235 256 253 240 237 238 193 297 236 235 250 250 242 259 251 248 251 247 247 253 251 243 251 259 251 256 253 255 261 262 274 266 271 275 279 276 279
302 267 229 210 226 231 238 233 233 234 237 236 234 234 234 240 241 237 237 250 253 258 250 266 248 252 255 242 241 242 259 254 253 262 259 269 257 264 269 272 270 269 272 275
311 285 247 229 217 222 228 227 231 235 233 236 234 235 248 239 242 244 242 240 239 249 255 259 267 269 255 250 251 251 240 250 255 257 261 256 253 262 266 267 264 270 270 272
328 304 249 247 234 234 230 228 230 233 235 236 239 250 234 235 239 235 246 235 240 243 243 249 251 249 257 255 260 245 240 245 251 248 254 259 258 257 258 259 262 266 270 269
333 312 294 256 239 245 235 235 236 235 232 236 234 238 236 234 232 234 235 249 245 303 300 241 247 255 258 245 248 259 264 249 256 258 248 264 257 262 261 259 262 260 263 263
355 337 332 275 237 230 216 227 231 231 242 235 238 235 234 236 237 235 236 236 255 246 243 253 247 252 254 249 256 257 257 245 251 245 250 253 252 258 255 263 268 265 260 261
354 339 325 274 249 230 238 221 231 232 233 235 233 234 233 232 234 237 236 245 242 238 257 249 248 252 244 260 228 252 250 261 263 248 249 256 252 261 257 258 281 260 254 262
348 353 349 321 271 234 238 244 239 236 235 238 237 237 234 237 236 237 239 238 238 237 240 244 245 250 247 251 257 254 256 249 254 265 260 266 255 248 263 262 263 264 267 264
263 349 355 325 307 292 265 247 248 236 232 238 239 238 238 235 231 239 240 239 239 238 239 257 264 247 271 249 256 262 247 258 260 242 261 253 259 257 264 266 260 264 264 259
339 345 345 343 313 299 310 270 252 244 244 237 213 233 235 235 234 226 235 206 239 240 239 238 238 237 241 246 254 256 246 255 241 247 254 264 262 258 261 264 266 264 263 267
336 340 336 347 339 315 276 270 262 254 247 245 246 238 237 215 235 237 236 237 222 206 213 233 239 257 254 242 258 257 249 251 252 252 256 256 258 261 263 263 263 264 264 266
333 337 331 334 340 334 306 288 279 267 263 252 251 247 246 243 241 210 241 232 241 243 242 246 243 242 239 239 242 243 244 249 249 250 252 257 256 266 261 261 265 265 265 261
329 330 324 327 334 335 304 295 288 278 270 265 260 254 253 249 245 242 243 244 248 245 242 243 243 239 244 242 243 257 243 243 254 251 249 252 253 252 254 264 258 256 260 272
329 330 324 329 331 332 324 307 289 281 276 271 265 260 253 253 253 248 238 243 245 246 248 249 243 243 242 240 249 252 243 242 244 244 245 247 249 250 254 259 256 255 260 261
328 326 324 326 328 329 321 316 298 292 281 276 278 270 266 260 260 255 249 247 247 247 245 249 250 246 246 241 209 251 245 246 249 244 248 248 249 249 249 250 251 254 256 259
327 324 323 322 323 325 322 318 301 295 293 282 274 265 263 262 267 266 259 256 252 249 248 249 248 250 236 249 244 245 244 245 256 246 244 247 248 250 251 252 252 253 255 255
326 320 322 319 323 326 321 312 290 282 287 287 285 281 276 265 257 259 261 258 257 257 254 247 215 249 250 249 250 253 252 246 246 247 248 249 248 249 250 252 253 254 254 256
322 320 321 323 321 326 319 312 293 300 297 297 288 278 273 269 265 265 258 256 261 258 235 256 256 248 248 251 248 248 249 252 252 249 248 249 251 251 251 251 252 254 255 256
318 318 318 323 321 325 318 307 303 301 296 291 286 281 276 274 271 270 268 260 256 256 254 258 250 257 254 248 248 246 246 236 234 251 254 249 248 251 251 252 252 253 253 254